SDM246 URMM-ULLI

Flight info

Callsign SDM246
Flight time N/A
Altitude 38000
Route LARIN5M LARIN G481 NIRGA N82 RINGU N50 NUDKO T561 ODATI T875 GENPA GENPA1A
Aircraft A319/M-SDE3FGHIRWY/LB1

Departure

Time 2026-05-07 11:09
Airport Mineralnye Vody Airport (URMM)

Arrival

Time N/A
Airport Pulkovo Airport (ULLI)
Time Latitude Longitude Altitude Speed Heading
2026-05-07 10:59 44.21695 43.09116 1051 ft 0 kts 212°
2026-05-07 11:00 44.21704 43.09124 1052 ft 5 kts 212°
2026-05-07 11:01 44.21730 43.09149 1052 ft 4 kts 220°
2026-05-07 11:01 44.21747 43.09172 1052 ft 3 kts 237°
2026-05-07 11:01 44.21753 43.09190 1052 ft 2 kts 262°
2026-05-07 11:01 44.21754 43.09206 1052 ft 2 kts 286°
2026-05-07 11:02 44.21751 43.09218 1052 ft 2 kts 296°
2026-05-07 11:02 44.21745 43.09232 1052 ft 2 kts 302°
2026-05-07 11:02 44.21739 43.09245 1052 ft 2 kts 304°
2026-05-07 11:02 44.21737 43.09251 1051 ft 0 kts 304°
2026-05-07 11:03 44.21737 43.09250 1051 ft 0 kts 304°
2026-05-07 11:03 44.21741 43.09242 1052 ft 2 kts 304°
2026-05-07 11:04 44.21749 43.09226 1052 ft 3 kts 304°
2026-05-07 11:04 44.21761 43.09201 1051 ft 4 kts 304°
2026-05-07 11:04 44.21777 43.09167 1051 ft 5 kts 303°
2026-05-07 11:04 44.21796 43.09127 1051 ft 5 kts 303°
2026-05-07 11:05 44.21819 43.09081 1051 ft 6 kts 311°
2026-05-07 11:05 44.21861 43.09069 1051 ft 7 kts 16°
2026-05-07 11:05 44.21904 43.09098 1051 ft 7 kts 29°
2026-05-07 11:05 44.21951 43.09125 1051 ft 8 kts
2026-05-07 11:06 44.22002 43.09105 1051 ft 8 kts 333°
2026-05-07 11:06 44.22051 43.09070 1052 ft 8 kts 332°
2026-05-07 11:06 44.22101 43.09033 1052 ft 8 kts 333°
2026-05-07 11:06 44.22151 43.08995 1053 ft 8 kts 332°
2026-05-07 11:07 44.22204 43.08956 1053 ft 9 kts 332°
2026-05-07 11:07 44.22264 43.08912 1053 ft 10 kts 333°
2026-05-07 11:07 44.22332 43.08863 1052 ft 12 kts 332°
2026-05-07 11:07 44.22407 43.08807 1053 ft 12 kts 332°
2026-05-07 11:08 44.22473 43.08750 1055 ft 10 kts 313°
2026-05-07 11:08 44.22492 43.08712 1055 ft 0 kts 302°
2026-05-07 11:08 44.22495 43.08707 1055 ft 4 kts 302°
2026-05-07 11:08 44.22637 43.08394 1053 ft 77 kts 302°
2026-05-07 11:09 44.23048 43.07488 1053 ft 140 kts 302°
2026-05-07 11:09 44.23626 43.06222 1467 ft 150 kts 301°
2026-05-07 11:09 44.24193 43.05002 2270 ft 159 kts 304°
2026-05-07 11:09 44.24823 43.03606 2826 ft 181 kts 303°
2026-05-07 11:10 44.25535 43.02019 3322 ft 205 kts 304°
2026-05-07 11:10 44.26064 43.00839 3706 ft 221 kts 303°
2026-05-07 11:10 44.27221 42.98263 4698 ft 248 kts 303°
2026-05-07 11:10 44.28148 42.96200 5639 ft 253 kts 302°
2026-05-07 11:11 44.28784 42.94786 6354 ft 256 kts 302°
2026-05-07 11:11 44.29748 42.92680 7336 ft 260 kts 306°
2026-05-07 11:11 44.31693 42.90679 8475 ft 272 kts 341°
2026-05-07 11:11 44.33586 42.90428 9429 ft 280 kts
2026-05-07 11:12 44.35489 42.91148 10266 ft 290 kts 16°
2026-05-07 11:12 44.37499 42.92030 10620 ft 314 kts 16°
2026-05-07 11:12 44.39651 42.92976 11126 ft 330 kts 16°
2026-05-07 11:12 44.41865 42.93948 11912 ft 337 kts 16°
2026-05-07 11:13 44.44119 42.94934 12725 ft 341 kts 17°
2026-05-07 11:13 44.46402 42.95930 13540 ft 346 kts 17°
2026-05-07 11:13 44.48711 42.96935 14295 ft 350 kts 17°
2026-05-07 11:13 44.51048 42.97949 14997 ft 354 kts 17°
2026-05-07 11:14 44.53413 42.98978 15705 ft 358 kts 17°
2026-05-07 11:14 44.55770 43.00008 16389 ft 362 kts 17°
2026-05-07 11:14 44.58186 43.01068 17098 ft 365 kts 17°
2026-05-07 11:14 44.60563 43.02367 17773 ft 370 kts 26°
2026-05-07 11:15 44.62089 43.03566 18238 ft 373 kts 30°
2026-05-07 11:15 44.65082 43.06004 19047 ft 378 kts 30°
2026-05-07 11:15 44.67366 43.07857 19675 ft 381 kts 30°
2026-05-07 11:15 44.69666 43.09725 20298 ft 384 kts 30°
2026-05-07 11:16 44.71989 43.11612 20923 ft 387 kts 30°
2026-05-07 11:16 44.74327 43.13514 21536 ft 390 kts 30°
2026-05-07 11:16 44.76681 43.15432 22157 ft 392 kts 30°
2026-05-07 11:16 44.79052 43.17366 22747 ft 395 kts 30°
2026-05-07 11:17 44.81442 43.19314 23313 ft 399 kts 30°
2026-05-07 11:17 44.83851 43.21279 23844 ft 402 kts 30°
2026-05-07 11:17 44.86281 43.23261 24298 ft 405 kts 30°
2026-05-07 11:17 44.88724 43.25257 24748 ft 407 kts 30°
2026-05-07 11:18 44.91185 43.27273 25208 ft 410 kts 31°
2026-05-07 11:18 44.93655 43.29304 25665 ft 412 kts 31°
2026-05-07 11:18 44.95298 43.30657 25964 ft 413 kts 31°
2026-05-07 11:18 44.98632 43.33405 26577 ft 416 kts 31°
2026-05-07 11:19 45.01137 43.35470 27024 ft 419 kts 31°
2026-05-07 11:19 45.03671 43.37524 27467 ft 421 kts 28°
2026-05-07 11:19 45.05444 43.38642 27770 ft 423 kts 21°
2026-05-07 11:19 45.09282 43.39971 28349 ft 428 kts
2026-05-07 11:20 45.11259 43.40142 28625 ft 431 kts
2026-05-07 11:20 45.15264 43.39459 29164 ft 437 kts 349°
2026-05-07 11:20 45.18242 43.38531 29572 ft 439 kts 349°
2026-05-07 11:20 45.20223 43.37916 29811 ft 441 kts 349°
2026-05-07 11:21 45.24204 43.36689 30308 ft 444 kts 349°
2026-05-07 11:21 45.27228 43.35760 30603 ft 446 kts 349°
2026-05-07 11:21 45.30275 43.34823 30895 ft 449 kts 350°
2026-05-07 11:21 45.33337 43.33880 31184 ft 452 kts 349°
2026-05-07 11:22 45.36406 43.32930 31516 ft 452 kts 349°
2026-05-07 11:22 45.39484 43.31974 31928 ft 452 kts 349°
2026-05-07 11:22 45.42555 43.31022 32303 ft 452 kts 349°
2026-05-07 11:22 45.45633 43.30067 32692 ft 452 kts 349°
2026-05-07 11:23 45.48703 43.29114 33078 ft 452 kts 349°
2026-05-07 11:23 45.50741 43.28483 33334 ft 452 kts 350°
2026-05-07 11:23 45.54858 43.27210 33842 ft 453 kts 349°
2026-05-07 11:23 45.57934 43.26257 34219 ft 452 kts 349°
2026-05-07 11:24 45.61011 43.25299 34534 ft 453 kts 349°
2026-05-07 11:24 45.64088 43.24336 34840 ft 453 kts 349°
2026-05-07 11:24 45.67172 43.23371 35136 ft 453 kts 349°
2026-05-07 11:24 45.70253 43.22410 35419 ft 454 kts 349°
2026-05-07 11:25 45.73340 43.21451 35700 ft 454 kts 349°
2026-05-07 11:25 45.76430 43.20502 35973 ft 454 kts 349°
2026-05-07 11:25 45.79528 43.19586 36242 ft 455 kts 350°
2026-05-07 11:25 45.82628 43.18698 36496 ft 455 kts 350°
2026-05-07 11:26 45.85733 43.17821 36763 ft 455 kts 350°
2026-05-07 11:26 45.88844 43.16941 37005 ft 455 kts 349°
2026-05-07 11:26 45.91953 43.16052 37253 ft 456 kts 349°
2026-05-07 11:26 45.94010 43.15459 37408 ft 456 kts 349°
2026-05-07 11:27 45.98172 43.14255 37736 ft 456 kts 349°
2026-05-07 11:27 46.01246 43.13363 37950 ft 457 kts 349°
2026-05-07 11:27 46.03351 43.12749 38078 ft 458 kts 349°
2026-05-07 11:27 46.07486 43.11541 38104 ft 458 kts 349°
2026-05-07 11:28 46.12711 43.10009 38100 ft 457 kts 349°
2026-05-07 11:28 46.19947 43.07899 38095 ft 456 kts 349°
2026-05-07 11:29 46.26164 43.06083 38091 ft 455 kts 349°
2026-05-07 11:29 46.32376 43.04261 38089 ft 455 kts 349°
2026-05-07 11:30 46.37542 43.02756 38096 ft 456 kts 349°
2026-05-07 11:30 46.44805 43.00626 38090 ft 456 kts 349°
2026-05-07 11:31 46.49968 42.99113 38089 ft 455 kts 349°
2026-05-07 11:31 46.56180 42.97290 38087 ft 455 kts 349°
2026-05-07 11:32 46.65485 42.94537 38078 ft 455 kts 349°
2026-05-07 11:33 46.71681 42.92702 38077 ft 454 kts 349°
2026-05-07 11:33 46.77874 42.90868 38068 ft 454 kts 349°
2026-05-07 11:34 46.84068 42.89031 38071 ft 454 kts 349°
2026-05-07 11:34 46.90258 42.87185 38066 ft 454 kts 349°
2026-05-07 11:35 46.96438 42.85333 38059 ft 454 kts 349°
2026-05-07 11:35 47.02588 42.83485 38053 ft 454 kts 349°
2026-05-07 11:36 47.08775 42.81629 38055 ft 454 kts 349°
2026-05-07 11:36 47.14957 42.79769 38050 ft 454 kts 349°
2026-05-07 11:37 47.21141 42.77896 38053 ft 454 kts 349°
2026-05-07 11:37 47.27327 42.76038 38052 ft 453 kts 349°
2026-05-07 11:38 47.33508 42.74189 38053 ft 453 kts 349°
2026-05-07 11:38 47.39686 42.72336 38047 ft 453 kts 349°
2026-05-07 11:39 47.45817 42.70474 38036 ft 453 kts 349°
2026-05-07 11:39 47.51987 42.68609 38037 ft 453 kts 349°
2026-05-07 11:40 47.58157 42.66737 38035 ft 452 kts 349°
2026-05-07 11:40 47.64320 42.64856 38029 ft 452 kts 349°
2026-05-07 11:41 47.70487 42.62987 38025 ft 452 kts 349°
2026-05-07 11:41 47.76644 42.61114 38019 ft 452 kts 349°
2026-05-07 11:42 47.82804 42.59227 38015 ft 452 kts 349°
2026-05-07 11:42 47.88958 42.57341 37991 ft 451 kts 348°
2026-05-07 11:43 47.95110 42.55461 38007 ft 451 kts 348°
2026-05-07 11:43 48.01214 42.53595 38015 ft 451 kts 348°
2026-05-07 11:44 48.07363 42.51691 38018 ft 451 kts 348°
2026-05-07 11:44 48.13508 42.49779 38022 ft 451 kts 348°
2026-05-07 11:45 48.19657 42.47865 38018 ft 451 kts 348°
2026-05-07 11:45 48.25747 42.45601 38018 ft 451 kts 343°
2026-05-07 11:46 48.31760 42.42876 38020 ft 451 kts 343°
2026-05-07 11:46 48.37761 42.40156 38007 ft 450 kts 343°
2026-05-07 11:47 48.43763 42.37425 38014 ft 450 kts 343°
2026-05-07 11:47 48.49756 42.34681 38010 ft 450 kts 343°
2026-05-07 11:48 48.55750 42.31941 38011 ft 450 kts 343°
2026-05-07 11:48 48.61741 42.29197 38006 ft 450 kts 343°
2026-05-07 11:49 48.67728 42.26451 38007 ft 450 kts 343°
2026-05-07 11:49 48.73715 42.23702 38005 ft 450 kts 343°
2026-05-07 11:50 48.79704 42.20940 38001 ft 450 kts 344°
2026-05-07 11:50 48.85688 42.18180 38003 ft 450 kts 343°
2026-05-07 11:51 48.91677 42.15409 38001 ft 450 kts 344°
2026-05-07 11:51 48.97662 42.12633 38000 ft 450 kts 343°
2026-05-07 11:52 49.03648 42.09848 37998 ft 450 kts 345°
2026-05-07 11:52 49.09752 42.08214 38000 ft 449 kts 353°
2026-05-07 11:53 49.15937 42.06905 37998 ft 449 kts 353°
2026-05-07 11:53 49.22117 42.05573 37999 ft 449 kts 353°
2026-05-07 11:54 49.28299 42.04233 38001 ft 449 kts 353°
2026-05-07 11:54 49.34480 42.02912 37997 ft 449 kts 353°
2026-05-07 11:55 49.40666 42.01590 37999 ft 449 kts 353°
2026-05-07 11:55 49.46849 42.00257 38002 ft 449 kts 353°
2026-05-07 11:56 49.53026 41.98913 37997 ft 449 kts 353°
2026-05-07 11:56 49.59207 41.97555 37998 ft 448 kts 353°
2026-05-07 11:57 49.65384 41.96205 37998 ft 448 kts 353°
2026-05-07 11:57 49.71561 41.94848 37994 ft 448 kts 353°
2026-05-07 11:58 49.77734 41.93496 37997 ft 448 kts 353°
2026-05-07 11:58 49.83904 41.92147 37995 ft 448 kts 353°
2026-05-07 11:59 49.90076 41.90792 37994 ft 448 kts 353°
2026-05-07 11:59 49.96241 41.89429 37988 ft 447 kts 353°
2026-05-07 12:00 50.01360 41.88301 37989 ft 447 kts 353°
2026-05-07 12:00 50.08561 41.86700 37986 ft 447 kts 353°
2026-05-07 12:01 50.14678 41.85329 37980 ft 447 kts 352°
2026-05-07 12:01 50.20832 41.83897 37980 ft 447 kts 351°
2026-05-07 12:02 50.26925 41.81925 37982 ft 447 kts 347°
2026-05-07 12:02 50.32983 41.79687 37975 ft 447 kts 347°
2026-05-07 12:03 50.39046 41.77508 37974 ft 447 kts 348°
2026-05-07 12:03 50.45120 41.75423 37969 ft 447 kts 348°
2026-05-07 12:04 50.51195 41.73357 37972 ft 447 kts 348°
2026-05-07 12:04 50.57268 41.71264 37980 ft 447 kts 348°
2026-05-07 12:05 50.63335 41.69155 37976 ft 447 kts 348°
2026-05-07 12:05 50.69406 41.67050 37973 ft 447 kts 348°
2026-05-07 12:06 50.75476 41.64941 37970 ft 447 kts 348°
2026-05-07 12:06 50.81543 41.62815 37967 ft 447 kts 347°
2026-05-07 12:07 50.86592 41.61040 37964 ft 447 kts 348°
2026-05-07 12:07 50.93693 41.58552 37971 ft 447 kts 348°
2026-05-07 12:08 50.99777 41.56418 37973 ft 448 kts 347°
2026-05-07 12:08 51.05856 41.54263 37973 ft 448 kts 347°
2026-05-07 12:09 51.11934 41.52093 37978 ft 447 kts 347°
2026-05-07 12:09 51.16983 41.50299 37979 ft 447 kts 347°
2026-05-07 12:10 51.24077 41.47772 37975 ft 447 kts 347°
2026-05-07 12:10 51.25063 41.47422 37978 ft 447 kts 347°
2026-05-07 12:11 51.36175 41.43456 37975 ft 447 kts 347°
2026-05-07 12:11 51.42241 41.41279 37973 ft 447 kts 347°
2026-05-07 12:12 51.48307 41.39100 37971 ft 447 kts 347°
2026-05-07 12:12 51.54366 41.36897 37972 ft 446 kts 347°
2026-05-07 12:13 51.60421 41.34698 37972 ft 446 kts 346°
2026-05-07 12:13 51.66415 41.32189 37966 ft 444 kts 338°
2026-05-07 12:14 51.71749 41.27284 37963 ft 442 kts 324°
2026-05-07 12:14 51.76781 41.21553 37961 ft 442 kts 324°
2026-05-07 12:15 51.81809 41.15836 37965 ft 442 kts 324°
2026-05-07 12:15 51.86839 41.10115 37966 ft 442 kts 324°
2026-05-07 12:16 51.91860 41.04369 37970 ft 442 kts 324°
2026-05-07 12:16 51.96871 40.98606 37971 ft 442 kts 323°
2026-05-07 12:17 52.01874 40.92826 37978 ft 441 kts 323°
2026-05-07 12:17 52.07046 40.87471 37977 ft 441 kts 329°
2026-05-07 12:18 52.12398 40.82580 37976 ft 441 kts 329°
2026-05-07 12:18 52.17741 40.77666 37969 ft 441 kts 329°
2026-05-07 12:19 52.23073 40.72745 37970 ft 440 kts 329°
2026-05-07 12:19 52.28365 40.67844 37972 ft 440 kts 329°
2026-05-07 12:20 52.29313 40.66964 37975 ft 440 kts 329°
2026-05-07 12:20 52.33697 40.62888 37970 ft 440 kts 329°
2026-05-07 12:21 52.39010 40.57925 37970 ft 440 kts 329°
2026-05-07 12:21 52.44326 40.52969 37968 ft 439 kts 329°
2026-05-07 12:22 52.50484 40.47195 37964 ft 439 kts 329°
2026-05-07 12:22 52.54936 40.43035 37960 ft 439 kts 329°
2026-05-07 12:23 52.60254 40.38082 37959 ft 439 kts 329°
2026-05-07 12:23 52.65563 40.33111 37956 ft 439 kts 329°
2026-05-07 12:24 52.70836 40.28154 37961 ft 439 kts 329°
2026-05-07 12:24 52.76145 40.23152 37966 ft 440 kts 329°
2026-05-07 12:25 52.81457 40.18128 37966 ft 440 kts 329°
2026-05-07 12:25 52.86769 40.13095 37969 ft 440 kts 329°
2026-05-07 12:26 52.92072 40.08041 37971 ft 440 kts 328°
2026-05-07 12:26 52.96508 40.03800 37971 ft 439 kts 329°
2026-05-07 12:27 53.02669 39.97923 37966 ft 439 kts 329°
2026-05-07 12:27 53.04300 39.96365 37963 ft 439 kts 329°
2026-05-07 12:28 53.06663 39.94109 37962 ft 439 kts 328°
2026-05-07 12:28 53.11946 39.89026 37962 ft 439 kts 328°
2026-05-07 12:29 53.17222 39.83928 37960 ft 438 kts 328°
2026-05-07 12:29 53.22497 39.78825 37957 ft 438 kts 328°
2026-05-07 12:30 53.27771 39.73726 37954 ft 438 kts 328°
2026-05-07 12:30 53.33037 39.68603 37950 ft 438 kts 328°
2026-05-07 12:31 53.38302 39.63467 37945 ft 438 kts 328°
2026-05-07 12:31 53.43591 39.58419 37946 ft 438 kts 330°
2026-05-07 12:32 53.49031 39.53808 37946 ft 438 kts 332°
2026-05-07 12:32 53.54510 39.49338 37939 ft 438 kts 332°
2026-05-07 12:33 53.62682 39.42459 37935 ft 437 kts 332°
2026-05-07 12:33 53.68109 39.37815 37935 ft 437 kts 331°
2026-05-07 12:34 53.73528 39.33159 37929 ft 437 kts 331°
2026-05-07 12:34 53.78949 39.28487 37924 ft 437 kts 331°
2026-05-07 12:35 53.84367 39.23817 37921 ft 437 kts 331°
2026-05-07 12:35 53.85245 39.23059 37920 ft 437 kts 331°